Weather History for Cecil Field, FL

Change the Weather History Date:

Monday, May 12, 2014

  Actual Average (KJAX) Record (KJAX)
Temperature  
Mean Temperature 73 °F 73 °F  
Max Temperature 84 °F 85 °F 97 °F (1967)
Min Temperature 62 °F 62 °F 47 °F (1981)
Degree Days  
Heating Degree Days 0 0  
Month to date heating degree days 3  
Since 1 July heating degree days 1347  
Cooling Degree Days 8 8  
Month to date cooling degree days 85  
Year to date cooling degree days 281  
Growing Degree Days 23 (Base 50)    
Moisture  
Dew Point 65 °F    
Average Humidity 87    
Maximum Humidity 100    
Minimum Humidity 51    
Precipitation  
Precipitation 0.00 in 0.07 in 1.90 in (1974)
Month to date precipitation 0.80  
Year to date precipitation 13.88  
Snow  
Snow 0.00 in 0.00 in 0.00 in (2002)
Month to date snowfall 0.0  
Since 1 July snowfall T  
Snow Depth -    
Sea Level Pressure  
Sea Level Pressure 30.15 in    
Wind  
Wind Speed 2 mph (ESE)    
Max Wind Speed 13 mph    
Max Gust Speed -    
Visibility 6 miles    
Events Fog    
T = Trace of Precipitation, MM = Missing Value Source: NWS Daily Summary

Daily Weather History Graph

Daily Weather History Graph

Search for Another Location

Airport:

Trip Planner

Search our weather history database for the weather conditions in past years. The results will help you decide how hot, cold, wet, or windy it might be!

Date:

Astronomy

May. 12, 2014 Rise Set
Actual Time 6:35 AM EDT 8:12 PM EDT
Civil Twilight 6:09 AM EDT 8:38 PM EDT
Nautical Twilight 5:38 AM EDT 9:09 PM EDT
Astronomical Twilight 5:05 AM EDT 9:42 PM EDT
Moon 6:17 PM EDT (5/12) 5:03 AM EDT (5/12)
Length of Visible Light 14h 28m
Length of Day
13h 36m
Waxing Gibbous, 95% of the Moon is Illuminated
May 12
Waxing Gibbous
May 14
Full
May 21
Last Quarter
May 28
New
Jun 5
First Quarter

Hourly Weather History & Observations

Time (EDT) Temp. Heat Index Dew Point Humidity Pressure Visibility Wind Dir Wind Speed Gust Speed Precip Events Conditions
12:15 AM 66.2 °F - 66.2 °F 100% 30.15 in 2.0 mi Calm Calm - N/A   Clear
12:35 AM 64.4 °F - 64.4 °F 100% 30.15 in 1.0 mi Calm Calm - N/A   Clear
12:55 AM 64.4 °F - 64.4 °F 100% 30.14 in 3.0 mi Calm Calm - N/A   Clear
1:15 AM 64.4 °F - 64.4 °F 100% 30.14 in 2.0 mi Calm Calm - N/A   Clear
1:55 AM 64.4 °F - 64.4 °F 100% 30.14 in 3.0 mi Calm Calm - N/A   Clear
2:15 AM 64.4 °F - 64.4 °F 100% 30.13 in 4.0 mi Calm Calm - N/A   Clear
2:35 AM 64.4 °F - 64.4 °F 100% 30.13 in 5.0 mi Calm Calm - N/A   Clear
2:55 AM 64.4 °F - 64.4 °F 100% 30.13 in 5.0 mi Calm Calm - N/A   Clear
3:15 AM 64.4 °F - 64.4 °F 100% 30.12 in 1.8 mi Calm Calm - N/A   Clear
3:35 AM 62.6 °F - 62.6 °F 100% 30.12 in 2.5 mi Calm Calm - N/A   Clear
3:55 AM 62.6 °F - 62.6 °F 100% 30.13 in 3.0 mi Calm Calm - N/A   Clear
4:15 AM 62.6 °F - 62.6 °F 100% 30.13 in 5.0 mi Calm Calm - N/A   Clear
4:35 AM 62.6 °F - 62.6 °F 100% 30.13 in 3.0 mi Calm Calm - N/A   Clear
4:55 AM 62.6 °F - 62.6 °F 100% 30.12 in 3.0 mi Calm Calm - N/A   Clear
5:15 AM 62.6 °F - 62.6 °F 100% 30.12 in 1.0 mi Calm Calm - N/A   Mostly Cloudy
5:35 AM 62.6 °F - 62.6 °F 100% 30.13 in 2.5 mi Calm Calm - N/A   Mostly Cloudy
5:55 AM 62.6 °F - 62.6 °F 100% 30.14 in 0.2 mi Calm Calm - N/A Fog Fog
6:15 AM 62.6 °F - 62.6 °F 100% 30.14 in 0.2 mi Calm Calm - N/A Fog Fog
6:35 AM 62.6 °F - 62.6 °F 100% 30.15 in 0.2 mi Calm Calm - N/A Fog Fog
6:50 AM 62.6 °F - 62.6 °F 100% 30.16 in 1.0 mi Calm Calm - N/A   Clear
7:50 AM 64.4 °F - 64.4 °F 100% 30.18 in 7.0 mi Calm Calm - N/A   Clear
8:50 AM 73.4 °F - 71.6 °F 94% 30.18 in 10.0 mi SE 4.6 mph - N/A   Clear
9:50 AM 77.0 °F - 69.8 °F 78% 30.19 in 10.0 mi SE 11.5 mph - N/A   Scattered Clouds
10:50 AM 80.6 °F 83.2 °F 68.0 °F 65% 30.20 in 10.0 mi SE 11.5 mph - N/A   Scattered Clouds
11:50 AM 80.6 °F 83.2 °F 68.0 °F 65% 30.20 in 10.0 mi East 5.8 mph - N/A   Mostly Cloudy
1:50 PM 84.2 °F 86.6 °F 66.2 °F 55% 30.18 in 10.0 mi East 9.2 mph - N/A   Mostly Cloudy
2:50 PM 84.2 °F 85.6 °F 64.4 °F 51% 30.16 in 10.0 mi East 11.5 mph - N/A   Mostly Cloudy
3:50 PM 84.2 °F 86.6 °F 66.2 °F 55% 30.15 in 10.0 mi ESE 11.5 mph - N/A   Scattered Clouds
4:50 PM 82.4 °F 84.6 °F 66.2 °F 58% 30.14 in 10.0 mi East 11.5 mph - N/A   Scattered Clouds
5:50 PM 82.4 °F 83.9 °F 64.4 °F 54% 30.14 in 10.0 mi ESE 12.7 mph - N/A   Partly Cloudy
6:50 PM 80.6 °F 81.8 °F 62.6 °F 54% 30.13 in 10.0 mi ESE 11.5 mph - N/A   Clear
7:50 PM 77.0 °F - 64.4 °F 65% 30.13 in 10.0 mi East 8.1 mph - N/A   Clear
8:15 PM 75.2 °F - 64.4 °F 69% 30.14 in 10.0 mi East 5.8 mph - N/A   Clear
8:35 PM 75.2 °F - 66.2 °F 73% 30.14 in 10.0 mi East 3.5 mph - N/A   Clear
8:55 PM 73.4 °F - 68.0 °F 83% 30.14 in 10.0 mi East 3.5 mph - N/A   Clear
9:15 PM 73.4 °F - 68.0 °F 83% 30.14 in 10.0 mi Calm Calm - N/A   Clear
9:35 PM 73.4 °F - 68.0 °F 83% 30.15 in 10.0 mi Calm Calm - N/A   Clear
9:55 PM 73.4 °F - 68.0 °F 83% 30.15 in 10.0 mi Calm Calm - N/A   Clear
10:15 PM 71.6 °F - 68.0 °F 88% 30.15 in 10.0 mi Calm Calm - N/A   Clear
10:35 PM 71.6 °F - 68.0 °F 88% 30.15 in 10.0 mi Calm Calm - N/A   Clear
10:55 PM 69.8 °F - 68.0 °F 94% 30.15 in 9.0 mi Calm Calm - N/A   Clear
11:15 PM 68.0 °F - 66.2 °F 94% 30.15 in 7.0 mi Calm Calm - N/A   Clear
11:35 PM 68.0 °F - 66.2 °F 94% 30.15 in 5.0 mi Calm Calm - N/A   Clear
11:55 PM 66.2 °F - 66.2 °F 100% 30.14 in 4.0 mi Calm Calm - N/A   Clear